Location: B?dargowo
(53.3916°N, 14.4413°E)
Time: 03:47:48
(UTC+00:00)

RESURS DK-1 - Pass Details

Date: 05 February 2023
Orbit: 549 x 557 km, 69.9° (Epoch: 24 March)

Event Time Altitude Azimuth Distance (km) Brightness Sun altitude
Rises 16:23:16 0° 328° (NNW) 2,742 6.1 -5.0°
Reaches altitude 10° 16:25:31 10° 333° (NNW) 1,846 5.1 -5.4°
Maximum altitude 16:29:33 52° 51° (NE) 700 2.5 -5.9°
Drops below altitude 10° 16:33:34 10° 128° (SE) 1,841 4.7 -6.5°
Sets 16:35:49 0° 133° (SE) 2,734 5.6 -6.8°
